Wind_Speed
9 9 10 10 9 9 8 8 8 8 8 7 6 5 5 5 4 4 4 3 3 3 3 3 3 3 2 2 1 1 1 1 1 1 1 1 0 0 1 1 2 2 3 4 5 5 6 7 7
8 9 9 9 7 7 7 6 7 8 8 7 7 7 7 6 5 5 4 4 4 4 4 5 5 4 4 4 3 2 2 2 1 1 1 1 1 2 2 2 2 2 3 4 4 5 5 5 6
8 9 9 8 6 6 6 6 6 6 7 7 7 8 7 7 7 6 6 6 6 6 6 6 7 7 6 6 6 5 4 4 4 4 3 3 3 3 3 3 3 3 3 3 4 4 4 4 5
7 8 8 7 6 6 5 5 6 6 7 8 9 9 9 8 8 8 8 8 8 8 8 8 9 9 9 9 8 8 8 7 7 6 6 5 5 5 4 4 4 4 4 3 4 4 4 4 4
7 8 8 7 7 8 8 8 8 8 8 9 10 10 10 10 10 10 9 10 9 10 10 11 11 12 12 12 12 12 11 11 10 10 9 9 8 7 7 7 6 6 5 5 5 5 4 5 5
7 8 8 8 9 9 9 10 10 10 11 11 11 11 11 11 11 12 12 12 13 12 13 12 13 13 14 14 14 15 15 14 14 14 13 12 12 11 10 9 9 8 8 7 6 5 5 5 5
9 9 10 10 10 11 11 11 11 11 12 12 12 12 13 13 13 14 14 15 14 15 15 15 15 15 15 16 17 17 18 18 18 17 17 16 15 14 14 12 12 11 10 9 8 7 6 5 5
10 11 11 11 12 13 13 13 13 14 14 14 14 14 15 15 16 16 16 17 17 18 18 18 18 18 17 18 18 19 19 20 20 20 20 19 19 18 17 16 15 14 13 12 11 10 8 7 6
11 12 13 13 14 15 15 16 16 16 16 17 17 18 18 19 19 19 20 20 21 21 21 21 21 21 21 21 21 21 21 22 22 22 23 22 21 21 21 19 18 17 16 15 13 12 11 10 9
12 13 14 15 16 17 17 18 18 19 20 20 21 21 21 21 22 22 23 24 24 24 25 25 25 25 25 25 26 25 25 25 25 24 25 24 24 24 23 23 21 20 19 18 16 15 13 12 11
14 15 16 16 17 18 19 20 21 22 22 22 23 24 24 24 25 26 27 28 28 28 29 29 29 29 29 29 29 29 29 28 28 27 27 27 26 27 26 25 25 23 22 21 20 18 16 15 14
15 17 17 17 18 19 20 21 23 23 24 25 25 26 26 26 27 28 29 31 31 32 33 33 33 33 33 33 34 33 32 32 32 31 30 29 28 28 28 27 27 26 24 23 23 22 19 17 16
16 17 17 18 19 21 22 22 23 24 25 26 27 28 28 29 30 31 32 33 34 34 35 36 36 36 36 37 37 37 37 36 35 35 34 32 30 29 29 29 28 27 27 25 24 23 22 20 19
17 17 18 20 21 21 22 23 24 25 26 28 29 30 31 31 32 33 33 34 35 35 35 36 36 36 36 37 37 38 38 38 37 37 36 35 33 32 32 30 30 30 29 28 26 26 25 23 21
17 18 19 21 21 22 23 24 25 27 28 30 30 30 30 30 30 31 31 32 33 33 34 34 34 35 35 35 36 37 38 39 39 39 39 37 36 35 35 33 31 31 30 28 28 27 25 25 24
18 19 20 21 22 24 25 25 26 27 27 28 28 27 27 28 28 29 29 30 30 31 32 32 32 33 34 34 35 36 37 38 39 39 40 40 39 38 37 36 35 33 32 30 29 28 27 26 25
19 20 21 23 23 24 25 25 25 24 25 26 26 26 27 27 27 27 27 28 28 29 29 30 30 31 31 32 32 33 35 36 37 38 39 40 40 40 40 38 37 36 34 32 29 28 28 26 26
20 22 23 24 24 24 24 24 23 23 23 24 25 26 26 25 25 25 26 26 26 26 26 26 27 28 29 30 31 32 33 34 35 36 37 38 40 41 40 40 40 39 36 35 33 31 30 29 27
20 22 23 24 24 24 23 22 22 21 22 22 23 24 24 24 24 24 23 23 23 24 24 25 25 26 26 27 28 29 30 31 32 34 35 36 38 39 41 42 41 41 38 36 35 34 33 31 29
20 22 23 23 23 23 21 20 20 20 20 21 21 22 22 22 22 22 22 22 23 23 23 23 24 24 24 24 24 25 27 28 29 30 32 34 36 38 39 42 42 41 40 39 38 36 35 32 31
19 20 21 21 21 20 19 17 17 17 18 19 19 20 20 20 20 20 21 22 22 22 22 22 22 22 21 21 21 22 23 24 25 27 29 31 33 35 37 38 41 42 42 41 40 39 37 36 34
17 18 19 19 18 17 16 14 14 15 16 17 17 17 18 18 19 19 21 22 22 22 22 21 20 20 20 19 19 20 20 20 21 23 25 26 28 31 34 36 37 40 41 42 42 41 39 38 37
15 16 17 17 15 14 14 13 13 14 14 15 15 16 17 18 19 20 21 21 22 22 21 21 20 20 19 19 18 18 18 18 19 19 21 23 25 27 30 33 35 37 39 41 42 41 40 39 39
13 14 14 14 13 12 13 13 12 13 14 14 15 16 17 18 19 20 21 21 22 22 22 21 20 20 19 18 18 17 16 16 16 16 17 19 21 23 25 28 31 33 36 38 40 40 41 40 40
11 12 12 11 11 11 12 12 12 13 14 15 15 16 17 18 19 21 22 22 23 22 22 21 21 20 20 19 18 17 17 15 14 14 14 15 17 19 21 24 26 29 32 35 38 39 40 41 42
9 9 9 10 10 10 11 12 13 14 14 15 15 16 17 18 20 22 22 23 23 23 23 22 21 20 20 20 19 18 17 16 14 12 12 13 14 16 18 21 23 26 29 32 35 37 38 40 42
6 7 8 8 9 10 10 11 12 14 14 15 15 16 17 19 21 22 22 23 23 24 24 23 22 21 20 21 21 20 19 17 14 12 11 10 11 13 15 18 20 23 26 28 32 34 36 37 39
4 6 7 8 8 10 10 11 13 13 14 15 15 16 18 19 20 21 22 23 23 24 24 23 23 22 21 21 21 20 19 18 16 14 11 9 9 10 11 14 17 20 23 26 28 30 32 34 36
3 5 6 7 8 9 10 11 12 13 14 15 16 17 18 19 20 21 21 22 23 24 24 24 23 23 22 22 22 21 20 19 17 15 12 10 9 8 8 10 13 16 19 22 25 27 29 31 33
4 4 5 6 8 9 10 11 12 12 14 15 16 17 18 19 20 21 21 22 23 24 24 24 23 23 23 23 23 22 21 20 18 16 14 11 10 8 8 8 10 12 15 18 21 23 25 28 30
Wind_Direction
39 39 41 44 45 45 41 43 49 45 44 40 37 28 19 18 10 349 336 326 323 327 324 318 317 324 331 341 352 24 58 92 114 123 133 140 158 254 297 303 306 310 313 311 309 302 294 291 289
25 30 26 31 35 36 34 34 41 40 35 28 24 19 13 9 360 340 323 310 299 298 298 296 295 294 295 297 295 294 294 288 274 255 251 258 270 278 286 295 302 312 320 324 324 321 314 305 299
10 12 15 18 24 27 24 26 27 24 22 15 8 3 2 360 351 332 316 301 290 284 284 283 282 281 281 282 282 279 276 273 271 268 265 262 268 275 277 282 287 298 310 320 325 326 326 320 317
356 356 2 3 7 6 356 7 7 6 8 4 356 350 346 345 339 325 313 302 289 280 279 279 276 273 272 272 271 270 269 268 267 264 263 262 263 265 270 273 277 283 291 303 312 317 322 323 324
339 337 346 346 345 344 339 345 346 351 351 349 343 337 333 332 329 320 309 301 292 287 282 278 277 275 271 269 266 265 264 264 264 263 262 263 262 260 264 267 270 273 277 284 291 301 309 315 318
323 325 331 334 331 327 328 332 341 340 334 332 330 325 322 319 317 311 303 296 294 290 289 283 282 279 275 271 268 266 263 262 261 261 261 261 260 261 262 264 265 267 269 271 276 282 290 300 308
314 317 315 316 318 318 321 323 325 323 320 320 318 314 312 310 307 303 298 294 290 288 286 284 282 282 280 276 272 268 264 263 262 261 259 258 258 258 259 260 261 262 264 265 267 271 276 282 291
307 310 310 309 310 311 310 313 314 312 308 308 307 303 302 301 299 296 291 287 286 285 283 281 280 279 278 278 276 272 269 267 265 262 258 257 256 257 257 258 259 260 260 261 263 265 267 269 276
301 304 307 307 307 309 307 307 308 308 304 302 301 299 298 295 293 289 286 283 280 279 278 279 278 275 272 272 272 270 268 267 267 264 261 257 256 256 256 256 257 258 258 258 260 262 262 262 266
296 300 303 304 305 306 306 306 306 304 301 300 299 297 295 292 289 286 283 280 278 276 275 274 274 271 270 270 268 266 264 265 266 266 263 258 256 257 256 255 254 256 257 257 258 259 258 257 258
293 296 299 300 302 302 302 303 303 301 298 297 296 295 292 289 287 285 282 280 279 276 274 271 270 268 268 268 267 267 266 264 264 265 264 261 259 256 257 254 252 253 254 256 256 257 255 254 253
292 297 299 299 300 300 301 302 301 299 299 299 297 296 294 290 290 287 284 282 280 278 276 273 271 269 268 268 266 265 265 265 264 265 264 262 260 257 256 255 254 252 253 256 255 253 253 253 253
291 295 296 297 298 300 301 301 300 301 301 300 299 298 296 294 293 290 287 285 283 281 278 275 273 271 269 268 266 265 264 263 262 262 261 261 260 258 255 253 253 253 254 254 253 250 250 248 249
290 293 295 297 298 300 300 302 303 303 303 301 301 299 297 296 294 292 290 288 287 285 283 280 277 274 272 269 267 265 264 262 260 259 260 259 258 255 254 254 251 250 252 252 252 250 249 248 247
289 294 296 297 299 301 303 303 303 304 303 302 302 302 300 300 299 297 295 293 291 289 287 284 281 278 275 272 268 265 264 262 259 258 257 257 255 254 253 252 250 250 250 251 250 250 249 246 246
291 294 296 299 301 304 305 306 307 307 306 305 305 305 305 305 304 302 300 297 295 293 291 289 287 283 279 275 272 268 265 263 260 257 255 254 253 252 251 250 249 250 249 249 252 249 246 246 245
292 296 298 301 304 306 308 310 312 310 309 308 309 310 310 310 309 308 305 303 301 298 295 293 291 287 284 280 276 272 267 264 261 258 255 253 251 250 249 248 248 247 246 246 249 247 245 243 242
294 298 302 304 308 310 313 315 315 313 312 312 314 316 317 316 314 313 312 310 308 306 302 299 297 293 288 284 280 276 271 266 262 258 256 254 251 249 247 246 246 245 244 243 243 243 244 243 241
297 302 305 309 313 316 318 318 317 316 316 316 318 320 321 320 319 318 317 316 313 310 307 304 302 300 296 291 285 279 274 270 265 260 256 253 251 249 246 243 242 242 241 240 240 240 241 242 241
300 305 309 313 317 319 320 321 319 318 319 321 323 324 324 324 323 325 325 325 323 320 316 313 310 307 303 297 291 285 279 273 268 263 258 255 252 249 246 242 239 239 239 238 237 238 237 236 237
303 309 313 318 321 323 324 325 322 322 324 326 328 329 329 331 332 333 334 335 334 331 328 324 320 316 311 306 300 293 286 278 272 265 260 256 252 249 246 243 240 238 237 236 235 236 235 234 232
307 313 317 322 324 327 328 331 329 329 331 333 334 335 339 342 344 343 343 341 340 339 338 335 332 327 322 315 309 304 296 287 279 270 264 259 254 250 246 244 241 238 236 235 234 234 234 232 230
313 319 323 327 329 332 335 338 340 338 340 342 343 346 349 352 352 351 350 349 348 348 347 346 343 338 333 325 318 312 304 294 286 276 269 262 255 250 247 244 242 239 236 234 233 233 232 231 230
320 326 330 334 338 342 346 350 354 353 353 353 355 357 358 360 359 358 357 356 356 354 353 351 350 347 343 338 333 327 319 307 297 286 276 268 259 252 247 244 242 239 236 234 233 232 231 231 230
327 332 338 346 352 356 358 1 3 2 2 3 5 5 6 5 5 4 2 1 0 358 357 355 354 353 351 348 345 340 333 324 312 298 286 276 265 256 249 244 242 239 236 235 233 233 233 232 230
333 342 351 358 4 7 9 10 8 9 11 13 14 13 11 10 9 8 8 7 5 5 3 1 0 359 358 357 354 349 344 337 327 313 299 285 274 260 252 245 242 239 237 236 234 234 234 233 232
342 356 3 8 14 17 19 17 15 16 20 21 19 16 13 10 9 9 9 9 9 8 7 6 5 4 3 3 2 360 356 351 342 330 316 300 285 268 254 247 243 241 239 237 235 235 235 234 232
4 11 13 17 23 26 25 23 23 24 23 20 17 12 9 7 8 9 11 12 11 11 10 10 9 8 6 5 4 3 2 0 355 348 338 324 308 288 269 256 250 244 240 238 236 235 235 235 234
21 21 25 30 30 29 28 27 24 23 21 18 14 11 9 9 9 11 12 12 12 12 12 12 11 11 10 9 9 7 6 5 3 360 353 341 328 311 293 274 260 250 243 240 237 236 235 235 235
35 31 32 32 30 29 28 28 23 21 18 16 13 11 11 11 12 12 12 12 13 13 13 14 14 12 11 10 9 9 8 8 6 3 1 355 344 327 310 293 275 263 251 242 237 235 235 234 234
Height
5918 5917 5916 5917 5917 5916 5914 5914 5912 5912 5911 5911 5910 5910 5909 5910 5910 5912 5909 5907 5907 5906 5906 5906 5905 5905 5904 5904 5904 5903 5903 5903 5903 5903 5903 5904 5904 5904 5904 5904 5905 5905 5905 5905 5905 5904 5904 5904 5904
5918 5918 5918 5918 5917 5916 5916 5914 5913 5912 5912 5911 5910 5910 5910 5909 5909 5908 5907 5906 5906 5905 5905 5905 5904 5904 5903 5903 5903 5903 5902 5902 5902 5902 5903 5903 5903 5903 5903 5903 5904 5904 5904 5904 5904 5903 5903 5903 5903
5919 5919 5919 5918 5916 5916 5916 5915 5914 5913 5912 5911 5911 5910 5909 5909 5908 5907 5906 5905 5904 5904 5903 5903 5903 5902 5902 5902 5901 5901 5901 5901 5901 5901 5902 5902 5902 5902 5902 5903 5903 5903 5903 5903 5903 5902 5902 5902 5902
5920 5920 5920 5918 5917 5916 5916 5915 5914 5913 5912 5911 5910 5909 5908 5908 5907 5906 5905 5903 5902 5902 5901 5901 5901 5900 5900 5900 5899 5899 5899 5899 5900 5900 5900 5900 5901 5901 5901 5901 5902 5902 5902 5902 5902 5902 5902 5902 5901
5920 5920 5919 5918 5917 5917 5915 5915 5914 5913 5912 5911 5910 5909 5907 5907 5906 5904 5903 5902 5900 5899 5899 5899 5898 5898 5898 5897 5897 5897 5897 5897 5897 5898 5898 5898 5899 5899 5899 5900 5900 5900 5900 5901 5901 5901 5901 5901 5901
5921 5920 5919 5918 5917 5916 5915 5914 5913 5913 5912 5910 5909 5908 5906 5905 5904 5903 5902 5900 5899 5897 5896 5896 5896 5895 5895 5895 5894 5894 5894 5894 5895 5895 5895 5896 5896 5897 5897 5898 5898 5899 5899 5899 5899 5899 5899 5900 5900
5920 5919 5918 5917 5916 5915 5915 5914 5913 5912 5911 5910 5908 5907 5905 5904 5902 5901 5900 5898 5897 5895 5894 5894 5893 5892 5892 5892 5891 5891 5891 5891 5891 5892 5892 5893 5893 5894 5895 5895 5896 5896 5897 5897 5897 5898 5898 5898 5898
5918 5918 5916 5916 5915 5914 5913 5912 5911 5910 5909 5908 5906 5905 5903 5902 5900 5898 5897 5895 5894 5892 5891 5890 5890 5889 5888 5888 5887 5887 5887 5887 5887 5887 5888 5889 5889 5890 5891 5892 5893 5894 5894 5895 5895 5896 5896 5897 5897
5917 5917 5915 5914 5914 5913 5911 5910 5909 5907 5906 5904 5903 5901 5900 5898 5896 5895 5893 5892 5890 5888 5887 5886 5885 5885 5884 5884 5883 5882 5882 5882 5882 5883 5883 5884 5885 5886 5887 5888 5890 5890 5891 5892 5892 5893 5894 5894 5895
5915 5914 5913 5913 5912 5910 5909 5907 5906 5904 5902 5900 5899 5897 5895 5893 5892 5890 5888 5886 5885 5884 5882 5881 5880 5880 5879 5878 5878 5878 5877 5877 5877 5877 5878 5878 5879 5881 5882 5884 5885 5886 5887 5888 5889 5890 5891 5892 5892
5913 5912 5911 5910 5909 5908 5906 5904 5902 5900 5898 5896 5894 5892 5890 5888 5886 5884 5882 5881 5879 5878 5876 5875 5874 5873 5873 5873 5872 5872 5871 5871 5872 5872 5872 5873 5873 5875 5876 5878 5880 5881 5882 5884 5885 5886 5887 5888 5889
5911 5910 5909 5908 5907 5905 5903 5901 5898 5896 5894 5891 5889 5886 5884 5882 5880 5878 5876 5874 5872 5870 5869 5868 5867 5867 5866 5866 5865 5865 5865 5865 5865 5865 5865 5866 5867 5868 5870 5872 5874 5876 5877 5878 5880 5881 5883 5884 5885
5909 5908 5907 5905 5904 5902 5899 5897 5894 5891 5888 5886 5883 5881 5878 5876 5873 5871 5868 5866 5864 5862 5860 5859 5858 5857 5857 5857 5857 5857 5857 5857 5857 5858 5858 5859 5861 5862 5863 5865 5867 5869 5871 5873 5874 5876 5878 5880 5881
5907 5905 5904 5902 5900 5898 5896 5893 5890 5886 5883 5880 5878 5875 5872 5869 5866 5864 5861 5858 5855 5853 5852 5850 5848 5848 5847 5847 5847 5847 5848 5848 5849 5850 5850 5851 5853 5855 5857 5858 5860 5863 5864 5866 5868 5870 5872 5874 5876
5904 5903 5901 5899 5897 5894 5892 5889 5886 5882 5878 5875 5872 5868 5865 5862 5859 5856 5853 5850 5847 5845 5843 5841 5839 5838 5837 5837 5837 5837 5837 5838 5839 5840 5841 5843 5845 5847 5849 5851 5853 5855 5857 5859 5862 5864 5866 5868 5871
5901 5900 5898 5896 5893 5890 5889 5885 5881 5877 5873 5869 5866 5863 5860 5857 5853 5850 5847 5843 5840 5837 5835 5832 5830 5829 5828 5827 5827 5826 5827 5827 5828 5830 5831 5833 5835 5837 5840 5842 5845 5847 5850 5852 5855 5857 5860 5862 5864
5898 5896 5894 5892 5889 5886 5884 5880 5877 5872 5869 5865 5861 5858 5855 5851 5848 5844 5841 5837 5834 5830 5828 5825 5823 5820 5819 5818 5817 5816 5816 5817 5817 5819 5821 5822 5825 5827 5830 5833 5836 5838 5842 5845 5848 5851 5853 5856 5858
5894 5892 5890 5888 5885 5882 5879 5876 5872 5868 5864 5861 5857 5854 5850 5847 5843 5839 5835 5832 5828 5824 5821 5818 5816 5813 5811 5809 5807 5807 5806 5806 5807 5808 5810 5812 5814 5817 5820 5823 5826 5829 5833 5836 5840 5843 5846 5849 5851
5891 5889 5886 5884 5881 5878 5875 5871 5868 5864 5861 5857 5854 5850 5847 5843 5839 5835 5831 5827 5823 5819 5816 5812 5809 5806 5803 5801 5799 5797 5796 5796 5797 5798 5799 5801 5803 5806 5809 5813 5816 5820 5824 5827 5831 5834 5838 5842 5844
5887 5885 5882 5880 5877 5874 5871 5868 5864 5861 5858 5855 5851 5848 5844 5840 5836 5832 5827 5823 5819 5815 5811 5807 5803 5800 5796 5794 5791 5789 5788 5787 5787 5788 5789 5790 5793 5795 5798 5802 5805 5809 5814 5818 5822 5826 5830 5834 5837
5884 5882 5879 5876 5873 5870 5868 5865 5862 5859 5856 5853 5849 5845 5841 5837 5833 5829 5824 5820 5815 5811 5806 5802 5798 5794 5791 5788 5785 5782 5780 5779 5779 5779 5780 5781 5783 5785 5788 5791 5795 5799 5804 5809 5813 5817 5821 5825 5829
5882 5879 5877 5873 5871 5868 5866 5863 5860 5857 5854 5851 5848 5844 5840 5836 5831 5827 5822 5818 5813 5808 5803 5799 5794 5790 5787 5783 5780 5777 5775 5773 5772 5771 5772 5773 5774 5776 5778 5782 5785 5789 5794 5799 5803 5808 5812 5816 5821
5879 5877 5874 5871 5868 5866 5863 5861 5860 5856 5853 5850 5846 5842 5838 5834 5830 5825 5821 5816 5811 5806 5801 5796 5792 5788 5784 5780 5776 5773 5770 5767 5766 5765 5765 5765 5766 5768 5770 5773 5776 5780 5784 5789 5794 5798 5803 5807 5812
5877 5875 5872 5870 5867 5865 5862 5860 5858 5855 5852 5849 5845 5841 5837 5833 5829 5825 5820 5815 5810 5805 5800 5795 5791 5786 5782 5777 5773 5769 5766 5763 5761 5759 5759 5759 5760 5761 5763 5765 5768 5771 5775 5780 5784 5789 5794 5798 5803
5876 5874 5872 5869 5866 5864 5862 5859 5858 5854 5851 5848 5845 5841 5837 5834 5829 5825 5820 5815 5810 5804 5799 5795 5790 5785 5781 5776 5772 5767 5764 5760 5757 5755 5755 5754 5754 5755 5756 5758 5761 5764 5767 5771 5776 5780 5785 5790 5794
5875 5873 5872 5869 5866 5864 5862 5859 5858 5855 5851 5848 5845 5842 5838 5834 5830 5825 5820 5815 5810 5805 5800 5795 5790 5785 5780 5776 5771 5766 5762 5758 5755 5753 5751 5750 5750 5750 5751 5753 5755 5757 5760 5764 5768 5772 5776 5781 5785
5874 5872 5871 5869 5867 5864 5862 5860 5858 5855 5852 5849 5846 5843 5839 5835 5831 5826 5821 5816 5811 5806 5800 5795 5790 5785 5781 5776 5771 5766 5761 5757 5753 5750 5749 5747 5747 5746 5747 5748 5749 5752 5754 5757 5760 5764 5768 5772 5777
5874 5872 5871 5869 5867 5865 5863 5861 5859 5856 5853 5850 5847 5844 5840 5836 5831 5827 5822 5817 5812 5807 5802 5796 5791 5786 5781 5776 5771 5767 5762 5757 5753 5749 5747 5745 5744 5743 5743 5744 5745 5746 5748 5751 5754 5757 5760 5764 5769
5874 5873 5871 5869 5868 5866 5864 5864 5860 5857 5854 5852 5848 5845 5841 5837 5832 5828 5823 5818 5813 5808 5803 5798 5793 5788 5783 5777 5772 5767 5762 5758 5753 5749 5746 5744 5742 5741 5741 5740 5741 5742 5743 5745 5748 5751 5754 5758 5761
5874 5873 5872 5871 5869 5866 5865 5866 5861 5858 5855 5853 5849 5846 5842 5838 5833 5829 5824 5820 5815 5810 5805 5800 5794 5789 5784 5779 5774 5768 5763 5758 5754 5750 5746 5743 5741 5739 5738 5738 5737 5738 5738 5740 5742 5745 5748 5752 5755